When you browse on this site, cookies collect data to enhance your experience and personalize the content and advertising you see.
Visit our Privacy Policy to learn more. By continuing to use the site, you agree to this use of cookies and data.
  • în România
  • Lista ţărilor
  • Pe 7 zile
  • Temperatura apei
  • Hartă satelitară
  • Meteo pe hartă
  • Widget-uri
  • user-avatar
    Intrare

    Meteo pe oră la Tatischevo

    Astăzi, 25 Martie, Luni

    Timp Temperatura Precipitaţii Vânt Presiune Umiditate
    00:00 -4°C° 0.1 mm 5 m/s 734 mmHg 95%
    01:00 -4°C° 0.2 mm 6 m/s 734 mmHg 94%
    02:00 -5°C° 0.2 mm 6 m/s 733 mmHg 94%
    03:00 -7°C° 0 mm 7 m/s 733 mmHg 93%
    04:00 -7°C° 0 mm 7 m/s 732 mmHg 93%
    05:00 -8°C° 0 mm 7 m/s 732 mmHg 93%
    06:00 -8°C° 0 mm 7 m/s 732 mmHg 93%
    07:00 -7°C° 0 mm 7 m/s 732 mmHg 92%
    08:00 -6°C° 0 mm 7 m/s 733 mmHg 92%
    09:00 -4°C° 0 mm 7 m/s 733 mmHg 91%
    10:00 -3°C° 0.1 mm 7 m/s 733 mmHg 93%
    11:00 -3°C° 0.1 mm 7 m/s 733 mmHg 95%
    12:00 -2°C° 0.1 mm 7 m/s 734 mmHg 98%
    13:00 -2°C° 0 mm 7 m/s 734 mmHg 97%
    14:00 -2°C° 0 mm 7 m/s 735 mmHg 96%
    15:00 -2°C° 0 mm 6 m/s 735 mmHg 94%
    16:00 -3°C° 0 mm 6 m/s 736 mmHg 93%
    17:00 -3°C° 0 mm 6 m/s 736 mmHg 92%
    18:00 -3°C° 0 mm 6 m/s 737 mmHg 90%
    19:00 -4°C° 0 mm 5 m/s 737 mmHg 91%
    20:00 -4°C° 0 mm 5 m/s 738 mmHg 92%
    21:00 -5°C° 0 mm 5 m/s 738 mmHg 93%
    22:00 -5°C° 0 mm 4 m/s 739 mmHg 93%
    23:00 -7°C° 0 mm 4 m/s 739 mmHg 92%

    Mâine, 26 Martie, Marţi

    Timp Temperatura Precipitaţii Vânt Presiune Umiditate
    00:00 -7°C° 0 mm 3 m/s 740 mmHg 92%
    01:00 -7°C° 0 mm 3 m/s 740 mmHg 91%
    02:00 -7°C° 0 mm 3 m/s 740 mmHg 90%
    03:00 -8°C° 0 mm 3 m/s 740 mmHg 88%
    04:00 -6°C° 0 mm 2 m/s 741 mmHg 87%
    05:00 -6°C° 0 mm 2 m/s 741 mmHg 86%
    06:00 -6°C° 0 mm 2 m/s 741 mmHg 84%
    07:00 -5°C° 0 mm 3 m/s 741 mmHg 85%
    08:00 -2°C° 0 mm 3 m/s 741 mmHg 85%
    09:00 -2°C° 0 mm 4 m/s 741 mmHg 85%
    10:00 -2°C° 0.1 mm 5 m/s 740 mmHg 90%
    11:00 -1°C° 0.1 mm 5 m/s 740 mmHg 95%
    12:00 -2°C° 0.1 mm 6 m/s 739 mmHg 99%
    13:00 -2°C° 0.7 mm 6 m/s 739 mmHg 99%
    14:00 -1°C° 0.7 mm 6 m/s 739 mmHg 99%
    15:00 -1°C° 0.7 mm 6 m/s 738 mmHg 99%
    16:00 -1°C° 0.3 mm 6 m/s 738 mmHg 99%
    17:00 -1°C° 0.3 mm 6 m/s 738 mmHg 99%
    18:00 -1°C° 0.3 mm 6 m/s 738 mmHg 98%
    19:00 0°C° 0 mm 5 m/s 738 mmHg 97%
    20:00 0°C° 0 mm 5 m/s 739 mmHg 96%
    21:00 -1°C° 0 mm 4 m/s 739 mmHg 94%
    22:00 0°C° 0 mm 3 m/s 739 mmHg 94%
    23:00 0°C° 0 mm 3 m/s 740 mmHg 94%

    Poimâine, 27 Martie, Miercuri

    Timp Temperatura Precipitaţii Vânt Presiune Umiditate
    00:00 0°C° 0 mm 3 m/s 740 mmHg 94%
    01:00 +1°C° 0.3 mm 2 m/s 740 mmHg 96%
    02:00 +1°C° 0.3 mm 2 m/s 740 mmHg 97%
    03:00 +1°C° 0.3 mm 2 m/s 739 mmHg 99%
    04:00 +1°C° 1 mm 2 m/s 739 mmHg 99%
    05:00 0°C° 1 mm 3 m/s 739 mmHg 99%
    06:00 0°C° 1 mm 3 m/s 739 mmHg 99%
    07:00 0°C° 1 mm 3 m/s 739 mmHg 99%
    08:00 -1°C° 1 mm 4 m/s 739 mmHg 98%
    09:00 -1°C° 1 mm 5 m/s 738 mmHg 98%
    10:00 -1°C° 1 mm 4 m/s 739 mmHg 98%
    11:00 -1°C° 1 mm 4 m/s 739 mmHg 99%
    12:00 -1°C° 1 mm 4 m/s 739 mmHg 99%
    13:00 -1°C° 1 mm 4 m/s 739 mmHg 99%
    14:00 0°C° 1 mm 3 m/s 739 mmHg 99%
    15:00 0°C° 1 mm 3 m/s 739 mmHg 99%
    16:00 0°C° 0.6 mm 3 m/s 739 mmHg 99%
    17:00 +1°C° 0.6 mm 2 m/s 739 mmHg 99%
    18:00 +1°C° 0.6 mm 2 m/s 739 mmHg 99%
    19:00 0°C° 0.4 mm 3 m/s 740 mmHg 98%
    20:00 0°C° 0.4 mm 3 m/s 740 mmHg 97%
    21:00 -1°C° 0.4 mm 4 m/s 740 mmHg 96%
    22:00 -2°C° 0.1 mm 4 m/s 740 mmHg 95%
    23:00 -2°C° 0.1 mm 4 m/s 740 mmHg 93%

    28 Martie, Joi

    Timp Temperatura Precipitaţii Vânt Presiune Umiditate
    00:00 -4°C° 0.1 mm 5 m/s 740 mmHg 92%
    01:00 -4°C° 0 mm 4 m/s 740 mmHg 92%
    02:00 -5°C° 0 mm 4 m/s 740 mmHg 91%
    03:00 -7°C° 0 mm 4 m/s 740 mmHg 90%
    04:00 -8°C° 0 mm 4 m/s 741 mmHg 90%
    05:00 -9°C° 0 mm 4 m/s 741 mmHg 90%
    06:00 -9°C° 0 mm 4 m/s 741 mmHg 90%
    07:00 -8°C° 0 mm 4 m/s 741 mmHg 89%
    08:00 -7°C° 0 mm 4 m/s 742 mmHg 88%
    09:00 -4°C° 0 mm 4 m/s 742 mmHg 86%
    10:00 -4°C° 0 mm 4 m/s 742 mmHg 87%
    11:00 -4°C° 0 mm 5 m/s 742 mmHg 87%
    12:00 -2°C° 0 mm 5 m/s 742 mmHg 87%
    13:00 -2°C° 0 mm 5 m/s 743 mmHg 87%
    14:00 -2°C° 0 mm 5 m/s 743 mmHg 87%
    15:00 -2°C° 0 mm 5 m/s 743 mmHg 87%
    16:00 -4°C° 0 mm 5 m/s 743 mmHg 88%
    17:00 -4°C° 0 mm 4 m/s 743 mmHg 88%
    18:00 -5°C° 0 mm 3 m/s 743 mmHg 89%
    19:00 -5°C° 0 mm 3 m/s 743 mmHg 89%
    20:00 -5°C° 0 mm 3 m/s 744 mmHg 90%
    21:00 -6°C° 0 mm 3 m/s 744 mmHg 90%
    22:00 -6°C° 0 mm 3 m/s 744 mmHg 90%
    23:00 -7°C° 0 mm 4 m/s 743 mmHg 90%

    29 Martie, Vineri

    Timp Temperatura Precipitaţii Vânt Presiune Umiditate
    00:00 -8°C° 0 mm 4 m/s 743 mmHg 90%
    01:00 -8°C° 0 mm 4 m/s 743 mmHg 91%
    02:00 -7°C° 0 mm 4 m/s 743 mmHg 93%
    03:00 -7°C° 0 mm 4 m/s 743 mmHg 94%
    04:00 -7°C° 0 mm 4 m/s 743 mmHg 94%
    05:00 -7°C° 0 mm 4 m/s 743 mmHg 93%
    06:00 -7°C° 0 mm 4 m/s 743 mmHg 93%
    07:00 -6°C° 0 mm 5 m/s 743 mmHg 92%
    08:00 -6°C° 0 mm 5 m/s 743 mmHg 92%
    09:00 -6°C° 0 mm 5 m/s 742 mmHg 91%
    10:00 -5°C° 0 mm 6 m/s 742 mmHg 89%
    11:00 -4°C° 0 mm 6 m/s 741 mmHg 87%
    12:00 -4°C° 0 mm 6 m/s 741 mmHg 86%
    13:00 -3°C° 0 mm 6 m/s 740 mmHg 84%
    14:00 -3°C° 0 mm 6 m/s 740 mmHg 83%
    15:00 -3°C° 0 mm 6 m/s 739 mmHg 82%
    16:00 -3°C° 0.1 mm 6 m/s 738 mmHg 82%
    17:00 -3°C° 0.1 mm 6 m/s 737 mmHg 82%
    18:00 -3°C° 0.1 mm 6 m/s 736 mmHg 82%
    19:00 -3°C° 0.2 mm 6 m/s 736 mmHg 84%
    20:00 -3°C° 0.2 mm 7 m/s 735 mmHg 87%
    21:00 -3°C° 0.2 mm 7 m/s 734 mmHg 90%
    22:00 -3°C° 0.3 mm 6 m/s 734 mmHg 91%
    23:00 -2°C° 0.3 mm 5 m/s 733 mmHg 93%

    30 Martie, Sâmbătă

    Timp Temperatura Precipitaţii Vânt Presiune Umiditate
    00:00 -2°C° 0.3 mm 4 m/s 733 mmHg 94%
    01:00 -1°C° 0 mm 3 m/s 733 mmHg 95%
    02:00 -1°C° 0 mm 3 m/s 733 mmHg 95%
    03:00 -2°C° 0 mm 3 m/s 733 mmHg 95%
    04:00 -2°C° 0 mm 3 m/s 734 mmHg 95%
    05:00 -2°C° 0 mm 3 m/s 734 mmHg 95%
    06:00 -3°C° 0 mm 4 m/s 735 mmHg 95%
    07:00 -2°C° 0 mm 4 m/s 735 mmHg 96%
    08:00 -2°C° 0 mm 4 m/s 736 mmHg 97%
    09:00 -2°C° 0 mm 4 m/s 737 mmHg 98%
    10:00 -2°C° 0 mm 4 m/s 737 mmHg 98%
    11:00 0°C° 0 mm 3 m/s 738 mmHg 98%
    12:00 0°C° 0 mm 3 m/s 738 mmHg 98%
    13:00 0°C° 0 mm 3 m/s 739 mmHg 98%
    14:00 0°C° 0 mm 3 m/s 739 mmHg 98%
    15:00 0°C° 0 mm 3 m/s 740 mmHg 98%
    16:00 0°C° 0 mm 3 m/s 740 mmHg 98%
    17:00 -1°C° 0 mm 3 m/s 740 mmHg 97%
    18:00 -1°C° 0 mm 3 m/s 741 mmHg 96%
    19:00 -1°C° 0 mm 3 m/s 741 mmHg 96%
    20:00 -1°C° 0 mm 3 m/s 742 mmHg 95%
    21:00 -2°C° 0 mm 2 m/s 742 mmHg 94%
    22:00 -3°C° 0 mm 2 m/s 742 mmHg 94%
    23:00 -4°C° 0 mm 2 m/s 742 mmHg 94%
    Arată mai mult